Weather History for KVPZ - January, 2013

Change the Weather History Date:

Friday, January 4, 2013

  Actual Average Record
Temperature  
Mean Temperature 22 °F 24 °F  
Max Temperature 31 °F 31 °F 55 °F (1998)
Min Temperature 13 °F 17 °F -12 °F (1999)
Degree Days  
Heating Degree Days 43 41  
Month to date heating degree days 178 164  
Since 1 July heating degree days 2363 2566  
Cooling Degree Days 0 0  
Month to date cooling degree days 0 0  
Year to date cooling degree days 0 0  
Moisture  
Dew Point 17 °F    
Average Humidity 78    
Maximum Humidity 88    
Minimum Humidity 66    
Precipitation  
Precipitation 0.00 in 0.05 in 0.90 in (2007)
Month to date precipitation 0.00 0.22  
Year to date precipitation 0.00 0.22  
Sea Level Pressure  
Sea Level Pressure 30.26 in    
Wind  
Wind Speed 13 mph (SW)    
Max Wind Speed 13 mph    
Max Gust Speed 16 mph    
Visibility 10 miles    
Events      
T = Trace of Precipitation, MM = Missing Value Source: NWS Daily Summary

Daily Weather History Graph

Daily Weather History Graph

Search for Another Location

Airport or City:

Trip Planner

Search our weather history database for the weather conditions in past years. The results will help you decide how hot, cold, wet, or windy it might be!

Date:

Astronomy

Jan. 04, 2013 Rise Set
Actual Time 7:14 AM CST 4:32 PM CST
Civil Twilight 6:43 AM CST 5:03 PM CST
Nautical Twilight 6:08 AM CST 5:37 PM CST
Astronomical Twilight 5:35 AM CST 6:11 PM CST
Moon No Moon Rise 10:51 AM CST (1/4)
Length of Visible Light 10h 19m
Length of Day
9h 17m
Waning Gibbous, 55% of the Moon is Illuminated
Jan 4
Waning Gibbous
Jan 4
Last Quarter
Jan 11
New
Jan 18
First Quarter
Jan 26
Full

Hourly Weather History & Observations

Time (CST) Temp. Windchill Dew Point Humidity Pressure Visibility Wind Dir Wind Speed Gust Speed Precip Events Conditions
12:53 AM 19.9 °F 7.3 °F 15.1 °F 81% 30.28 in 9.0 mi West 12.7 mph - N/A   Clear
1:53 AM 19.0 °F 7.5 °F 14.0 °F 81% 30.27 in 10.0 mi West 10.4 mph - N/A   Clear
2:53 AM 18.0 °F 6.9 °F 14.0 °F 84% 30.27 in 9.0 mi SW 9.2 mph - N/A   Clear
3:53 AM 16.0 °F 3.6 °F 12.9 °F 88% 30.27 in 8.0 mi WSW 10.4 mph - N/A   Clear
4:53 AM 16.0 °F 3.6 °F 10.9 °F 81% 30.27 in 10.0 mi WSW 10.4 mph - N/A   Clear
5:53 AM 15.1 °F 1.8 °F 10.9 °F 84% 30.27 in 9.0 mi SW 11.5 mph - N/A   Clear
7:53 AM 12.9 °F -1.6 °F 9.0 °F 84% 30.27 in 9.0 mi WSW 12.7 mph - N/A   Clear
8:53 AM 16.0 °F 1.7 °F 10.0 °F 77% 30.28 in 10.0 mi WSW 13.8 mph - N/A   Clear
9:53 AM 19.0 °F 6.1 °F 12.9 °F 77% 30.29 in 10.0 mi SSW 12.7 mph - N/A   Clear
10:53 AM 23.0 °F 9.6 °F 16.0 °F 74% 30.27 in 10.0 mi WSW 16.1 mph - N/A   Clear
11:53 AM 28.0 °F 14.9 °F 18.0 °F 66% 30.24 in 10.0 mi SW 19.6 mph 23.0 mph N/A   Clear
12:53 PM 30.0 °F 17.9 °F 19.9 °F 66% 30.21 in 10.0 mi SW 18.4 mph 27.6 mph N/A   Clear
1:53 PM 30.9 °F 20.2 °F 21.9 °F 69% 30.20 in 10.0 mi SW 15.0 mph 25.3 mph N/A   Clear
2:53 PM 30.0 °F 17.2 °F 21.9 °F 72% 30.21 in 10.0 mi SW 20.7 mph 26.5 mph N/A   Clear
3:53 PM 30.0 °F 17.9 °F 21.9 °F 72% 30.22 in 10.0 mi SW 18.4 mph 25.3 mph N/A   Clear
5:53 PM 28.0 °F 16.1 °F 21.9 °F 78% 30.24 in 10.0 mi SW 16.1 mph 23.0 mph N/A   Clear
6:53 PM 27.0 °F 16.7 °F 21.0 °F 78% 30.26 in 10.0 mi WSW 11.5 mph - N/A   Clear
7:53 PM 27.0 °F 17.3 °F 21.0 °F 78% 30.27 in 10.0 mi SW 10.4 mph - N/A   Clear
8:53 PM 25.0 °F 16.3 °F 21.0 °F 85% 30.27 in 10.0 mi SW 8.1 mph - N/A   Clear
9:53 PM 25.0 °F 15.5 °F 19.9 °F 81% 30.28 in 10.0 mi SW 9.2 mph - N/A   Clear
10:53 PM 25.0 °F 16.3 °F 19.9 °F 81% 30.28 in 10.0 mi SW 8.1 mph - N/A   Clear
11:53 PM 24.1 °F 18.2 °F 19.0 °F 81% 30.28 in 10.0 mi SW 4.6 mph - N/A   Clear